[[{"header":{"parameterUnit":"m.s-1","parameterCategory":1,"la1":30.2991,"la2":30.254,"lo1":-89.0895,"lo2":-89.0444,"dy":0.0017,"dx":0.0017,"nx":28,"ny":28,"refTime":"2025-07-04T09:00:00:Z","depth":0,"parameterNumber":2,"parameterNumberName":"U-component_of_WINDS"},"data":[0,0,0,0,0,0,0,0,0,0,0,0,0,0,0,0,0,0,0,0,0,0,0,0,0,0,0,0,0,0,0,0,0,0,0,0,0,0,0,0,0,0,0,0,0,0,0,0,0,0,0,0,0,0,0,0,0,0,-2.6049,-2.605,0,-2.6108,-2.6109,-2.6109,-2.6111,-2.611,-2.611,-2.6109,-2.6171,-2.6173,-2.6175,0,0,0,0,0,0,0,0,0,0,0,0,0,-2.594,-2.5942,-2.6049,-2.605,-2.6051,-2.6108,-2.6109,-2.6109,-2.6111,-2.611,-2.6109,-2.6109,-2.617,-2.6173,-2.6176,0,0,0,0,0,0,0,0,0,0,0,0,0,-2.5992,-2.5943,-2.6049,-2.6058,-2.606,-2.6108,-2.6109,-2.611,-2.6111,-2.611,-2.6109,-2.6108,-2.6169,-2.6173,-2.6176,-2.6219,0,0,-2.6187,-2.6188,0,0,0,0,0,0,0,0,-2.5989,-2.5996,-2.6056,-2.6058,-2.606,-2.6101,-2.6093,-2.6146,-2.6112,-2.6092,-2.6109,-2.6108,-2.6149,-2.6154,-2.6167,-2.6222,-2.6225,-2.6187,-2.6189,-2.6191,-2.6192,0,0,0,0,0,0,0,-2.5986,-2.5994,-2.6072,-2.6057,-2.6059,-2.606,-2.6066,-2.6103,-2.6126,-2.6094,-2.6094,-2.6101,-2.6149,-2.6164,-2.6169,-2.6226,-2.6187,-2.619,-2.6192,-2.6194,-2.632,-2.6321,0,0,0,0,0,0,-2.598,-2.5991,-2.6071,-2.6074,-2.6021,-2.6063,-2.607,-2.6089,-2.6125,-2.613,-2.6101,-2.61,-2.6158,-2.6165,-2.6171,-2.6225,-2.6191,-2.6194,-2.6196,-2.6319,-2.6321,-2.6322,0,0,0,0,0,0,-2.5978,-2.5987,-2.6068,-2.6033,-2.6043,-2.6066,-2.6087,-2.6091,-2.6105,-2.6131,-2.6135,-2.6112,-2.6158,-2.6166,-2.6207,-2.6227,-2.6195,-2.6199,-2.6317,-2.6319,-2.6321,-2.6333,0,0,0,0,0,0,-2.5975,-2.5986,-2.6002,-2.6033,-2.6045,-2.6103,-2.6088,-2.6092,-2.6111,-2.611,-2.6142,-2.6147,-2.6158,-2.6202,-2.6211,-2.6231,-2.6201,-2.6316,-2.6318,-2.6321,-2.6331,-2.6335,-2.6339,0,0,0,0,0,-2.5971,-2.6004,-2.6003,-2.6013,-2.6066,-2.6104,-2.6111,-2.6123,-2.6112,-2.6129,-2.6146,-2.6146,-2.6223,-2.6206,-2.6216,-2.6238,-2.6315,-2.6318,-2.632,-2.6329,-2.6334,-2.6339,0,0,0,0,0,0,-2.5975,-2.6008,-2.6008,-2.6051,-2.6075,-2.6105,-2.6126,-2.6127,-2.6155,-2.6153,-2.6167,-2.6174,-2.6216,-2.6231,-2.6211,-2.6282,-2.6268,-2.6273,-2.6271,-2.6276,-2.628,-2.6276,-2.6204,0,0,0,0,0,-2.5981,-2.601,-2.6036,-2.6072,-2.6084,-2.6103,-2.612,-2.6127,-2.6152,-2.6163,-2.6183,-2.6208,-2.6238,-2.6258,-2.6287,-2.6333,-2.6341,-2.6353,-2.6356,-2.6359,-2.6364,-2.6391,-2.6397,-2.6331,-2.6331,-2.6331,0,0,-2.5994,-2.6015,-2.6032,-2.6074,-2.6093,-2.6123,-2.6112,-2.6143,-2.6166,-2.6168,-2.6208,-2.6224,-2.6253,-2.6297,-2.6317,-2.6311,-2.6384,-2.6363,-2.6365,-2.6369,-2.6395,-2.6401,-2.6407,-2.6333,-2.6333,-2.6333,0,0,-2.6033,-2.6051,-2.6084,-2.6103,-2.6132,-2.6145,-2.6153,-2.6182,-2.6192,-2.6233,-2.6235,-2.6262,-2.6314,-2.6335,-2.6352,-2.6399,-2.6401,-2.6408,-2.6429,-2.6455,-2.6461,-2.6465,-2.6484,-2.649,-2.6413,-2.6413,-2.6413,0,-2.6046,-2.6091,-2.6101,-2.6133,-2.6152,-2.6154,-2.6188,-2.6206,-2.6243,-2.6256,-2.6248,-2.6313,-2.6333,-2.6383,-2.6394,-2.6408,-2.6418,-2.6406,-2.6459,-2.6464,-2.6468,-2.6486,-2.6493,-2.6413,-2.6413,-2.6413,-2.6413,0,-2.6106,-2.6137,-2.6159,-2.6195,-2.6216,-2.6249,-2.6265,-2.6285,-2.629,-2.6303,-2.6345,-2.6369,-2.6403,-2.6415,-2.642,-2.6466,-2.6462,-2.6456,-2.6442,-2.6475,-2.6493,-2.6499,-2.6415,-2.6414,-2.6414,-2.6414,0,0,-2.6151,-2.6191,-2.62,-2.6217,-2.6249,-2.6273,-2.6306,-2.6339,-2.6357,-2.6383,-2.6412,-2.6455,-2.645,-2.647,-2.6477,-2.65,-2.6538,-2.6492,-2.6493,-2.6501,-2.6593,-2.6598,-2.6606,-2.6538,-2.654,-2.6541,-2.6591,0,-2.6195,-2.6254,-2.6264,-2.6315,-2.6345,-2.6347,-2.6376,-2.64,-2.6413,-2.6441,-2.6455,-2.6487,-2.6477,-2.6489,-2.6511,-2.6529,-2.6557,-2.6525,-2.6567,-2.6569,-2.6562,-2.6615,-2.6621,-2.6667,-2.6598,-2.6599,-2.66,0,-2.6254,-2.6281,-2.6336,-2.6365,-2.6378,-2.6404,-2.6436,-2.6461,-2.6488,-2.6496,-2.6518,-2.6523,-2.6559,-2.6542,-2.6592,-2.657,-2.6587,-2.6599,-2.6601,-2.6607,-2.6588,-2.6625,-2.6682,-2.669,-2.661,-2.6609,-2.6608,0,-2.6284,-2.6334,-2.6373,-2.6387,-2.6422,-2.644,-2.6455,-2.6481,-2.6501,-2.6529,-2.6542,-2.6573,-2.6591,-2.6616,-2.663,-2.6616,-2.668,-2.6663,-2.6689,-2.6689,-2.6704,-2.6703,-2.6768,-2.6712,-2.6712,-2.6712,-2.6711,0,-2.6334,-2.6367,-2.6387,-2.6412,-2.645,-2.6462,-2.65,-2.6514,-2.6537,-2.6566,-2.6569,-2.6596,-2.6611,-2.664,-2.6651,-2.6692,-2.6699,-2.6708,-2.6711,-2.6709,-2.6708,-2.6722,-2.672,-2.6713,-2.6713,-2.6713,-2.6712,0,-2.6374,-2.6388,-2.6432,-2.6461,-2.6469,-2.6496,-2.6521,-2.6546,-2.6559,-2.6595,-2.6604,-2.6624,-2.6659,-2.6674,-2.6717,-2.6724,-2.6772,-2.6771,-2.6763,-2.6764,-2.679,-2.6788,-2.6868,-2.688,-2.6814,-2.6814,-2.6815,0,-2.6406,-2.6432,-2.6463,-2.6482,-2.6498,-2.6528,-2.6549,-2.6561,-2.6582,-2.6615,-2.6635,-2.667,-2.6698,-2.6754,-2.6773,-2.6806,-2.6808,-2.6833,-2.6813,-2.6811,-2.6811,-2.681,-2.6814,-2.6838,-2.6838,-2.6839,-2.6839,0,-2.6461,-2.6467,-2.6495,-2.6527,-2.6551,-2.6576,-2.6601,-2.6617,-2.6633,-2.6656,-2.6692,-2.6714,-2.6757,-2.6792,-2.6826,-2.6843,-2.6845,-2.6845,-2.6853,-2.6853,-2.6848,-2.6853,-2.6775,-2.6844,-2.6843,-2.6843,-2.6843,-2.6843,-2.6499,-2.6523,-2.655,-2.6582,-2.6602,-2.6625,-2.665,-2.6666,-2.6695,-2.6732,-2.6737,-2.6775,-2.6802,-2.6848,-2.6866,-2.6897,-2.6891,-2.6902,-2.6905,-2.6908,-2.6911,-2.6841,-2.6902,-2.6902,-2.6902,-2.6902,-2.6902,0,-2.6557,-2.6574,-2.6603,-2.6638,-2.6663,-2.6661,-2.6689,-2.6711,-2.6744,-2.6769,-2.6797,-2.6838,-2.6872,-2.6894,-2.6928,-2.6949,-2.6951,-2.6958,-2.6958,-2.6962,-2.6913,-2.6904,-2.6956,-2.6956,-2.6956,-2.6956,-2.6956,-2.6956,-2.659,-2.6631,-2.664,-2.6691,-2.6708,-2.6745,-2.6761,-2.6783,-2.6803,-2.6849,-2.6877,-2.6891,-2.6915,-2.6952,-2.6983,-2.6989,-2.7002,-2.701,-2.7016,-2.6971,-2.6965,-2.696,-2.6951,-2.7012,-2.7013,-2.7063,-2.7063,-2.7063]},{"header":{"parameterUnit":"m.s-1","parameterCategory":1,"la1":30.2991,"la2":30.254,"lo1":-89.0895,"lo2":-89.0444,"dy":0.0017,"dx":0.0017,"nx":28,"ny":28,"refTime":"2025-07-04T09:00:00:Z","depth":0,"parameterNumber":3,"parameterNumberName":"V-component_of_WINDS"},"data":[0,0,0,0,0,0,0,0,0,0,0,0,0,0,0,0,0,0,0,0,0,0,0,0,0,0,0,0,0,0,0,0,0,0,0,0,0,0,0,0,0,0,0,0,0,0,0,0,0,0,0,0,0,0,0,0,0,0,-1.7495,-1.7495,0,-1.7476,-1.7476,-1.7475,-1.7436,-1.7436,-1.7435,-1.7434,-1.7415,-1.7415,-1.7416,0,0,0,0,0,0,0,0,0,0,0,0,0,-1.7498,-1.7498,-1.7495,-1.7495,-1.7495,-1.7476,-1.7476,-1.7475,-1.7437,-1.7436,-1.7435,-1.7434,-1.7415,-1.7415,-1.7416,0,0,0,0,0,0,0,0,0,0,0,0,0,-1.749,-1.7498,-1.7495,-1.7473,-1.7471,-1.7476,-1.7476,-1.7475,-1.7437,-1.7436,-1.7434,-1.7433,-1.7415,-1.7415,-1.7416,-1.7441,0,0,-1.7417,-1.7417,0,0,0,0,0,0,0,0,-1.749,-1.749,-1.7476,-1.7474,-1.7472,-1.7457,-1.747,-1.7464,-1.7437,-1.745,-1.7434,-1.7433,-1.743,-1.7429,-1.7428,-1.744,-1.7439,-1.7417,-1.7417,-1.7417,-1.7417,0,0,0,0,0,0,0,-1.7491,-1.749,-1.7487,-1.7476,-1.7474,-1.7464,-1.7461,-1.7468,-1.7447,-1.7448,-1.7446,-1.7444,-1.7429,-1.7428,-1.7427,-1.7439,-1.7417,-1.7417,-1.7417,-1.7417,-1.7471,-1.7472,0,0,0,0,0,0,-1.7495,-1.7491,-1.7488,-1.7487,-1.7478,-1.7465,-1.7462,-1.7463,-1.7447,-1.7443,-1.7445,-1.7442,-1.7428,-1.7427,-1.7427,-1.7456,-1.7417,-1.7417,-1.7418,-1.747,-1.7471,-1.7472,0,0,0,0,0,0,-1.7495,-1.7495,-1.7489,-1.7488,-1.7487,-1.7466,-1.7468,-1.7463,-1.7463,-1.7444,-1.744,-1.7448,-1.7427,-1.7426,-1.7438,-1.7454,-1.7417,-1.7418,-1.7468,-1.747,-1.7472,-1.7514,0,0,0,0,0,0,-1.7495,-1.7495,-1.7505,-1.7489,-1.7487,-1.7501,-1.7469,-1.7464,-1.7463,-1.7459,-1.7446,-1.7442,-1.7426,-1.7437,-1.7438,-1.7454,-1.7418,-1.7467,-1.7469,-1.7471,-1.7511,-1.7517,-1.7522,0,0,0,0,0,-1.7495,-1.7517,-1.7505,-1.7505,-1.7498,-1.7502,-1.7501,-1.7481,-1.7465,-1.7474,-1.7462,-1.7443,-1.7452,-1.7439,-1.7439,-1.7456,-1.7466,-1.7468,-1.7471,-1.7508,-1.7516,-1.7522,0,0,0,0,0,0,-1.7536,-1.7515,-1.7501,-1.7519,-1.7512,-1.7495,-1.7506,-1.7489,-1.7488,-1.7484,-1.746,-1.7457,-1.7472,-1.7465,-1.7451,-1.7479,-1.7456,-1.7459,-1.7484,-1.7491,-1.7496,-1.7498,-1.7418,0,0,0,0,0,-1.7547,-1.7552,-1.7533,-1.755,-1.7547,-1.7527,-1.7528,-1.7514,-1.7506,-1.7503,-1.7492,-1.7485,-1.7486,-1.7488,-1.7488,-1.7509,-1.7506,-1.752,-1.7526,-1.7531,-1.7534,-1.7544,-1.7551,-1.7481,-1.7481,-1.7481,0,0,-1.757,-1.7559,-1.7563,-1.7558,-1.7551,-1.7556,-1.7525,-1.7532,-1.7536,-1.7504,-1.7514,-1.7506,-1.7497,-1.7513,-1.752,-1.7507,-1.7552,-1.7534,-1.7538,-1.7539,-1.7548,-1.7555,-1.756,-1.7483,-1.7483,-1.7483,0,0,-1.7615,-1.7607,-1.762,-1.7614,-1.7604,-1.759,-1.7594,-1.7579,-1.7572,-1.7581,-1.7558,-1.7561,-1.7564,-1.7559,-1.7556,-1.7598,-1.758,-1.7599,-1.7628,-1.7639,-1.7644,-1.7649,-1.7664,-1.767,-1.7602,-1.7602,-1.7602,0,-1.7645,-1.7652,-1.763,-1.7638,-1.7636,-1.7607,-1.762,-1.7615,-1.7606,-1.7606,-1.7592,-1.7594,-1.7586,-1.7601,-1.7611,-1.761,-1.7613,-1.7601,-1.7645,-1.765,-1.7654,-1.7668,-1.7674,-1.7604,-1.7604,-1.7603,-1.7603,0,-1.7689,-1.7694,-1.7706,-1.7698,-1.7697,-1.7708,-1.7688,-1.769,-1.7675,-1.7663,-1.7673,-1.7662,-1.766,-1.7662,-1.7647,-1.7674,-1.7667,-1.7649,-1.7625,-1.7663,-1.7676,-1.7682,-1.7607,-1.7607,-1.7606,-1.7605,0,0,-1.7761,-1.7739,-1.7744,-1.774,-1.7726,-1.7729,-1.7738,-1.7736,-1.7738,-1.7732,-1.774,-1.7742,-1.7726,-1.7723,-1.7708,-1.7717,-1.7751,-1.7698,-1.7697,-1.7709,-1.7781,-1.7795,-1.7802,-1.7739,-1.774,-1.774,-1.7782,0,-1.7803,-1.7818,-1.7798,-1.7818,-1.7822,-1.7794,-1.7802,-1.7794,-1.7783,-1.7785,-1.7772,-1.7774,-1.7752,-1.775,-1.7758,-1.7745,-1.7765,-1.7742,-1.7746,-1.7746,-1.775,-1.7808,-1.7824,-1.7863,-1.7787,-1.7787,-1.7788,0,-1.7855,-1.7852,-1.7872,-1.7856,-1.7857,-1.7865,-1.786,-1.7862,-1.7853,-1.7844,-1.7841,-1.7822,-1.783,-1.7806,-1.7816,-1.7801,-1.7801,-1.7795,-1.7796,-1.7797,-1.7771,-1.7812,-1.7875,-1.7882,-1.7796,-1.7795,-1.7795,0,-1.7907,-1.7906,-1.7918,-1.7915,-1.7897,-1.7903,-1.7896,-1.7886,-1.7885,-1.7881,-1.788,-1.7877,-1.7876,-1.7874,-1.7855,-1.7839,-1.7868,-1.7842,-1.7862,-1.7862,-1.7871,-1.7871,-1.7936,-1.7869,-1.7869,-1.7869,-1.7868,0,-1.7957,-1.797,-1.7941,-1.7949,-1.7963,-1.7939,-1.7953,-1.7943,-1.7934,-1.7939,-1.7914,-1.7919,-1.7893,-1.7895,-1.788,-1.7892,-1.7891,-1.7884,-1.7881,-1.7888,-1.7889,-1.7888,-1.7886,-1.787,-1.787,-1.7869,-1.7869,0,-1.8017,-1.7998,-1.8009,-1.7991,-1.7987,-1.7998,-1.7982,-1.7988,-1.7975,-1.7981,-1.7982,-1.7961,-1.7962,-1.7942,-1.794,-1.793,-1.7949,-1.7939,-1.7952,-1.7949,-1.797,-1.7969,-1.8039,-1.8047,-1.7974,-1.7974,-1.7975,0,-1.8051,-1.8061,-1.8043,-1.8045,-1.8039,-1.8041,-1.8041,-1.8017,-1.8017,-1.8007,-1.8014,-1.8013,-1.8012,-1.8015,-1.8,-1.7998,-1.7989,-1.8013,-1.7989,-1.7995,-1.799,-1.7991,-1.7992,-1.8019,-1.802,-1.8021,-1.8022,0,-1.8114,-1.8104,-1.8103,-1.81,-1.8099,-1.8095,-1.809,-1.8092,-1.8067,-1.8068,-1.8069,-1.8068,-1.8065,-1.8065,-1.8059,-1.8052,-1.8033,-1.8029,-1.8034,-1.8042,-1.8049,-1.8046,-1.7968,-1.8028,-1.8028,-1.8027,-1.8027,-1.8027,-1.8163,-1.817,-1.8159,-1.8159,-1.8152,-1.8148,-1.8152,-1.8139,-1.8139,-1.8135,-1.8121,-1.8125,-1.8114,-1.8105,-1.8099,-1.8102,-1.809,-1.8096,-1.8098,-1.81,-1.8105,-1.8048,-1.8101,-1.81,-1.81,-1.81,-1.81,0,-1.8225,-1.8216,-1.8217,-1.8209,-1.821,-1.8191,-1.8183,-1.8185,-1.8188,-1.818,-1.8178,-1.818,-1.8179,-1.8163,-1.816,-1.8165,-1.8157,-1.8166,-1.8166,-1.8164,-1.8115,-1.8112,-1.8173,-1.8173,-1.8173,-1.8173,-1.8173,-1.8173,-1.8258,-1.8269,-1.8257,-1.8265,-1.8256,-1.8259,-1.8256,-1.8252,-1.8245,-1.8247,-1.8247,-1.8236,-1.8225,-1.8221,-1.8219,-1.8215,-1.8215,-1.8228,-1.822,-1.8175,-1.8168,-1.8161,-1.8158,-1.8228,-1.8228,-1.8269,-1.827,-1.827]}]]